Regional Weather Roundup
Issued by NWS Raleigh/Durham, NC

Home | Current Version | Previous Version | Text Only | Print | Product List | Glossary On
Versions: 1 2 3 4 5 6 7 8 9 10 11 12 13 14 15 16 17 18 19 20 21 22 23 24 25 26 27 28 29 30 31 32 33 34 35 36 37 38 39 40 41 42 43 44 45 46 47 48 49 50
000
ASUS42 KRAH 040710
RWRRAH
NORTH CAROLINA WEATHER ROUNDUP
NATIONAL WEATHER SERVICE RALEIGH NC
300 AM EDT SAT JUL 04 2015

NOTE: "FAIR" INDICATES FEW OR NO CLOUDS BELOW 12,000 FEET WITH NO
SIGNIFICANT WEATHER AND/OR OBSTRUCTIONS TO VISIBILITY.

NCZ001-053-055-056-065-067-040800-
WESTERN NORTH CAROLINA

CITY           SKY/WX    TMP DP  RH WIND       PRES   REMARKS
ASHEVILLE      CLOUDY    68  61  78 CALM      30.02F
JEFFERSON      LGT RAIN  65  63  96 CALM      30.02S
HICKORY        PTCLDY    69  66  90 SW5       29.94F
RUTHERFORDTON  NOT AVBL
MOUNT AIRY     CLOUDY    71  69  93 CALM      29.95S FOG
$$

NCZ021-022-025-041-071-084-088-040800-
CENTRAL NORTH CAROLINA

CITY           SKY/WX    TMP DP  RH WIND       PRES   REMARKS
CHARLOTTE      MOCLDY    74  64  71 SW8       29.95F
GREENSBORO     MOCLDY    69  68  96 SW6       29.91F
WINSTON-SALEM  CLEAR     69  67  93 SW5       29.93F
RALEIGH-DURHAM MOCLDY    70  69  97 SW3       29.91F
FORT BRAGG     PTCLDY    75  69  81 SW7       29.91S
FAYETTEVILLE   PTCLDY    75  69  81 SW9       29.92S
$$

NCZ011-015-027-028-043-044-047-080-103-040800-
NORTHEASTERN NORTH CAROLINA

CITY           SKY/WX    TMP DP  RH WIND       PRES   REMARKS
ROANOKE RAPIDS MOCLDY    72  72 100 SW8       29.87F
ROCKY MT-WILSO MOCLDY    73  70  90 SW6       29.90S
GREENVILLE     MOCLDY    73  73 100 W8        29.92S
WASHINGTON     PTCLDY    74  71  91 SW9       29.91S
ELIZABETH CITY NOT AVBL
MANTEO         MOCLDY    75  73  93 SW13      29.88F
CAPE HATTERAS  MOCLDY    76  70  82 W15G24    29.93S
$$

NCZ078-087-090-091-093-098-101-040800-
SOUTHEASTERN NORTH CAROLINA

CITY           SKY/WX    TMP DP  RH WIND       PRES   REMARKS
LUMBERTON      CLEAR     75  69  81 SW5       29.94F
GOLDSBORO      MOCLDY    74  72  91 SW6       29.89F
KINSTON        PTCLDY    76  70  81 SW8       29.91F
KENANSVILLE    CLOUDY    74  70  86 SW3       29.94R
NEW BERN       CLOUDY    74  70  87 SW9       29.94S
CHERRY POINT   MOCLDY    76  69  79 SW15      29.95S
BEAUFORT       PTCLDY    79  74  84 SW15G24   29.95S
WILMINGTON     CLEAR     75  70  84 SW6       29.96S
$$




USA.gov is the U.S. government's official web portal to all federal, state and local government web resources and services.